Preview of NWS' New Version of Forecast
This preview is not operational and should not be used for support decisions.

Regional Weather Roundup (RWR)

Issued by National Weather Service (NWS)

                            
000
ASUS44 KMEG 202310
RWRTN 
TENNESSEE HOURLY STATE WEATHER ROUNDUP
NATIONAL WEATHER SERVICE MEMPHIS TN
500 PM CST WED FEB 20 2019

TNZ002-004-019-021-049-052-054-088>092-210000-
WEST TENNESSEE
  
CITY           SKY/WX    TMP DP  RH WIND       PRES   REMARKS
MEMPHIS INTL   MOCLDY    49  43  80 W6        29.95R                  
NWS MEMPHIS      N/A     49 N/A N/A MISG        N/A                   
JACKSON        CLOUDY    47  45  93 W7        29.95R                  
DYERSBURG      CLOUDY    47  43  86 SW12      29.95R                  
SOMERVILLE     CLOUDY    48  45  87 W6G13     29.94R                  
COVINGTON      CLOUDY    48  45  87 W8        29.95R                  
UNION CITY     CLOUDY    46  45  93 SW7       29.92R                  
PARIS          CLOUDY    46  45  93 W10       29.92R                  
HUNTINGDON     CLOUDY    46  45  93 W8        29.93R                  
SELMER         CLOUDY    48  48 100 W10       29.93R                  
$$

TNZ008-025-027-028-033-062-065-066-210000-
NORTH MIDDLE TENNESSEE
  
CITY           SKY/WX    TMP DP  RH WIND       PRES   REMARKS
NASHVILLE      CLOUDY    55  52  89 S7        29.90R                  
DICKSON        CLOUDY    52  50  93 W10G17    29.88R                  
CLARKSVILLE    CLOUDY    51  47  86 W13       29.90R                  
LEBANON        CLOUDY    54  52  94 SW8       29.90R FOG              
SMYRNA         LGT RAIN  54  52  93 SW3       29.92R FOG              
MURFREESBORO   CLOUDY    55  52  88 SW9G16    29.89R FOG              
COOKEVILLE     CLOUDY    54  52  94 S10G17    29.89R                  
GALLATIN       CLOUDY    54  54 100 VRB3      29.93R                  
CROSSVILLE     CLOUDY    50  48  93 VRB7      29.93S                  
ROCKWOOD       CLOUDY    48  48 100 SW8G16    29.95F FOG              
$$

TNZ061-075-076-078-094-096-097-210000-
SOUTH MIDDLE TENNESSEE
  
CITY           SKY/WX    TMP DP  RH WIND       PRES   REMARKS
LAWRENCEBURG   CLOUDY    54  54 100 S6        29.91R FOG              
LEWISBURG      CLOUDY    55  54  94 S8G15     29.90R FOG              
FAYETTEVILLE   CLOUDY    54  54 100 S15G21    29.90R                  
TULLAHOMA      CLOUDY    55  52  88 S10G22    29.90R                  
WINCHESTER     CLOUDY    55  52  88 SE13G20   29.91S                  
MCMINNVILLE    CLOUDY    59  54  82 SW12G18   29.89R                  
COLUMBIA       CLOUDY    55  55 100 S7        29.89R FOG              
SHELBYVILLE    CLOUDY    55  52  88 S14       29.90R                  
$$

TNZ017-018-042-046-047-210000-
NORTHEAST TENNESSEE
  
CITY           SKY/WX    TMP DP  RH WIND       PRES   REMARKS
TRI CITIES     MOCLDY    49  49 100 NE5       29.94F                  
ELIZABETHTON   FAIR      54  52  94 NE8G15    29.94F                  
GREENEVILLE    MOCLDY    52  50  93 NW15G31   29.96S                  
$$

TNZ012-013-036-069-073-074-210000-
CENTRAL EAST TENNESSEE
  
CITY           SKY/WX    TMP DP  RH WIND       PRES   REMARKS
KNOXVILLE      RAIN      48  47  96 SE3       29.96S FOG              
OAK RIDGE      LGT RAIN  48  48 100 CALM      29.97F FOG              
DOWNTOWN KNOXV MOCLDY    50  50 100 CALM      29.97R FOG              
GATLINBURG     CLOUDY    50  50 100 W5        29.96R                  
MORRISTOWN     MOCLDY    50  50 100 E6        29.93F                  
JACKSBORO      CLOUDY    48  48 100 CALM      29.98F                  
$$

TNZ083-085-099-210000-
SOUTHEAST TENNESSEE
  
CITY           SKY/WX    TMP DP  RH WIND       PRES   REMARKS
CHATTANOOGA    LGT RAIN  46  43  89 CALM      30.01R FOG              
DAYTON         CLOUDY    48  46  93 SW7       29.98S FOG              
$$

SKY/WX REPORTED AS FAIR MEANS FEW OR NO CLOUDS BELOW
12 THOUSAND FEET.